When you browse on this site, cookies collect data to enhance your experience and personalize the content and advertising you see.
Visit our Privacy Policy to learn more. By continuing to use the site, you agree to this use of cookies and data.

Stündliche Wetter Bolshie Dvorcy

Heute, 23 September, Mittwoch

Zeit Temperatur Niederschläge Wind Luftdruck Luftfeuchtigkeit
00:00 +15°C° 0 mm 2 m/S 749 mmHg 78%
01:00 +14°C° 0 mm 2 m/S 749 mmHg 79%
02:00 +14°C° 0 mm 2 m/S 749 mmHg 80%
03:00 +13°C° 0 mm 2 m/S 749 mmHg 77%
04:00 +13°C° 0 mm 2 m/S 749 mmHg 74%
05:00 +13°C° 0 mm 2 m/S 749 mmHg 71%
06:00 +12°C° 0 mm 3 m/S 749 mmHg 66%
07:00 +13°C° 0 mm 3 m/S 749 mmHg 61%
08:00 +14°C° 0 mm 3 m/S 749 mmHg 54%
09:00 +17°C° 0 mm 4 m/S 748 mmHg 51%
10:00 +19°C° 0 mm 4 m/S 748 mmHg 48%
11:00 +20°C° 0 mm 4 m/S 748 mmHg 46%
12:00 +21°C° 0 mm 4 m/S 748 mmHg 45%
13:00 +22°C° 0 mm 4 m/S 748 mmHg 44%
14:00 +25°C° 0 mm 4 m/S 748 mmHg 44%
15:00 +23°C° 0 mm 4 m/S 747 mmHg 49%
16:00 +22°C° 0 mm 3 m/S 747 mmHg 54%
17:00 +21°C° 0 mm 3 m/S 746 mmHg 59%
18:00 +19°C° 0 mm 3 m/S 746 mmHg 62%
19:00 +18°C° 0 mm 3 m/S 746 mmHg 65%
20:00 +16°C° 0 mm 3 m/S 747 mmHg 67%
21:00 +16°C° 0 mm 3 m/S 746 mmHg 67%
22:00 +14°C° 0 mm 3 m/S 746 mmHg 67%
23:00 +13°C° 0 mm 3 m/S 746 mmHg 67%

Morgen, 24 September, Donnerstag

Zeit Temperatur Niederschläge Wind Luftdruck Luftfeuchtigkeit
00:00 +13°C° 0 mm 3 m/S 746 mmHg 67%
01:00 +13°C° 0 mm 3 m/S 746 mmHg 67%
02:00 +12°C° 0 mm 3 m/S 746 mmHg 66%
03:00 +12°C° 0 mm 3 m/S 746 mmHg 65%
04:00 +12°C° 0 mm 3 m/S 746 mmHg 64%
05:00 +12°C° 0 mm 3 m/S 746 mmHg 63%
06:00 +12°C° 0 mm 3 m/S 746 mmHg 61%
07:00 +13°C° 0 mm 3 m/S 746 mmHg 59%
08:00 +14°C° 0 mm 4 m/S 746 mmHg 57%
09:00 +17°C° 0 mm 4 m/S 746 mmHg 54%
10:00 +19°C° 0 mm 4 m/S 746 mmHg 51%
11:00 +21°C° 0 mm 4 m/S 746 mmHg 48%
12:00 +22°C° 0 mm 4 m/S 746 mmHg 47%
13:00 +23°C° 0 mm 4 m/S 746 mmHg 45%
14:00 +25°C° 0 mm 4 m/S 746 mmHg 44%
15:00 +23°C° 0 mm 4 m/S 746 mmHg 48%
16:00 +22°C° 0 mm 3 m/S 745 mmHg 52%
17:00 +21°C° 0 mm 3 m/S 745 mmHg 56%
18:00 +20°C° 0 mm 3 m/S 745 mmHg 59%
19:00 +19°C° 0 mm 3 m/S 745 mmHg 62%
20:00 +17°C° 0 mm 3 m/S 745 mmHg 65%
21:00 +17°C° 0 mm 3 m/S 745 mmHg 68%
22:00 +16°C° 0 mm 3 m/S 745 mmHg 71%
23:00 +16°C° 0 mm 3 m/S 745 mmHg 75%

übermorgen, 25 September, Freitag

Zeit Temperatur Niederschläge Wind Luftdruck Luftfeuchtigkeit
00:00 +14°C° 0 mm 3 m/S 745 mmHg 78%
01:00 +14°C° 0 mm 3 m/S 745 mmHg 81%
02:00 +14°C° 0 mm 3 m/S 745 mmHg 84%
03:00 +14°C° 0 mm 3 m/S 745 mmHg 85%
04:00 +13°C° 0 mm 3 m/S 745 mmHg 87%
05:00 +13°C° 0 mm 3 m/S 744 mmHg 88%
06:00 +14°C° 0 mm 3 m/S 744 mmHg 84%
07:00 +16°C° 0 mm 3 m/S 744 mmHg 79%
08:00 +17°C° 0 mm 3 m/S 744 mmHg 75%
09:00 +19°C° 0 mm 4 m/S 744 mmHg 68%
10:00 +21°C° 0 mm 4 m/S 743 mmHg 62%
11:00 +22°C° 0 mm 4 m/S 743 mmHg 56%
12:00 +23°C° 0 mm 5 m/S 743 mmHg 54%
13:00 +26°C° 0 mm 5 m/S 742 mmHg 52%
14:00 +27°C° 0 mm 6 m/S 742 mmHg 50%
15:00 +26°C° 0.1 mm 5 m/S 742 mmHg 54%
16:00 +25°C° 0.1 mm 4 m/S 741 mmHg 58%
17:00 +24°C° 0.1 mm 3 m/S 741 mmHg 62%
18:00 +22°C° 0.6 mm 4 m/S 741 mmHg 66%
19:00 +21°C° 0.6 mm 4 m/S 741 mmHg 70%
20:00 +20°C° 0.6 mm 4 m/S 741 mmHg 73%
21:00 +19°C° 0 mm 4 m/S 741 mmHg 72%
22:00 +18°C° 0 mm 4 m/S 741 mmHg 71%
23:00 +18°C° 0 mm 4 m/S 740 mmHg 70%

26 September, Samstag

Zeit Temperatur Niederschläge Wind Luftdruck Luftfeuchtigkeit
00:00 +17°C° 0 mm 4 m/S 740 mmHg 75%
01:00 +17°C° 0 mm 4 m/S 740 mmHg 79%
02:00 +16°C° 0 mm 3 m/S 740 mmHg 83%
03:00 +15°C° 0 mm 4 m/S 740 mmHg 84%
04:00 +15°C° 0 mm 4 m/S 739 mmHg 85%
05:00 +15°C° 0 mm 4 m/S 739 mmHg 86%
06:00 +16°C° 0 mm 5 m/S 739 mmHg 84%
07:00 +17°C° 0 mm 5 m/S 739 mmHg 83%
08:00 +17°C° 0 mm 6 m/S 739 mmHg 81%
09:00 +20°C° 0 mm 6 m/S 739 mmHg 73%
10:00 +22°C° 0 mm 7 m/S 739 mmHg 64%
11:00 +23°C° 0 mm 7 m/S 740 mmHg 56%
12:00 +24°C° 0 mm 8 m/S 740 mmHg 53%
13:00 +26°C° 0 mm 8 m/S 739 mmHg 49%
14:00 +27°C° 0 mm 8 m/S 739 mmHg 46%
15:00 +26°C° 0 mm 7 m/S 739 mmHg 49%
16:00 +24°C° 0 mm 6 m/S 739 mmHg 53%
17:00 +23°C° 0 mm 6 m/S 739 mmHg 57%
18:00 +23°C° 0 mm 6 m/S 739 mmHg 55%
19:00 +22°C° 0 mm 6 m/S 739 mmHg 53%
20:00 +22°C° 0 mm 7 m/S 739 mmHg 52%
21:00 +22°C° 0 mm 7 m/S 739 mmHg 52%
22:00 +21°C° 0 mm 7 m/S 738 mmHg 52%
23:00 +21°C° 0 mm 7 m/S 738 mmHg 52%

27 September, Sonntag

Zeit Temperatur Niederschläge Wind Luftdruck Luftfeuchtigkeit
00:00 +21°C° 0 mm 7 m/S 738 mmHg 51%
01:00 +21°C° 0 mm 7 m/S 738 mmHg 50%
02:00 +20°C° 0 mm 7 m/S 737 mmHg 50%
03:00 +20°C° 0 mm 7 m/S 737 mmHg 51%
04:00 +20°C° 0 mm 7 m/S 737 mmHg 52%
05:00 +18°C° 0 mm 7 m/S 737 mmHg 53%
06:00 +18°C° 0 mm 7 m/S 737 mmHg 54%
07:00 +18°C° 0 mm 7 m/S 737 mmHg 55%
08:00 +18°C° 0 mm 8 m/S 737 mmHg 56%
09:00 +18°C° 0 mm 8 m/S 737 mmHg 54%
10:00 +20°C° 0 mm 8 m/S 737 mmHg 52%
11:00 +20°C° 0 mm 8 m/S 737 mmHg 50%
12:00 +21°C° 0.1 mm 8 m/S 737 mmHg 52%
13:00 +21°C° 0.1 mm 8 m/S 737 mmHg 54%
14:00 +21°C° 0.1 mm 9 m/S 737 mmHg 56%
15:00 +21°C° 0.2 mm 8 m/S 737 mmHg 58%
16:00 +20°C° 0.2 mm 8 m/S 737 mmHg 61%
17:00 +18°C° 0.2 mm 8 m/S 737 mmHg 63%
18:00 +18°C° 0.3 mm 7 m/S 737 mmHg 70%
19:00 +17°C° 0.3 mm 7 m/S 738 mmHg 77%
20:00 +16°C° 0.3 mm 7 m/S 738 mmHg 84%
21:00 +15°C° 0.6 mm 6 m/S 739 mmHg 86%
22:00 +15°C° 0.6 mm 5 m/S 739 mmHg 89%
23:00 +15°C° 0.6 mm 5 m/S 739 mmHg 91%

28 September, Montag

Zeit Temperatur Niederschläge Wind Luftdruck Luftfeuchtigkeit
00:00 +14°C° 0.1 mm 4 m/S 740 mmHg 91%
01:00 +13°C° 0.1 mm 4 m/S 740 mmHg 90%
02:00 +12°C° 0.1 mm 4 m/S 740 mmHg 90%
03:00 +12°C° 0 mm 4 m/S 741 mmHg 89%
04:00 +11°C° 0 mm 4 m/S 741 mmHg 88%
05:00 +11°C° 0 mm 4 m/S 742 mmHg 87%
06:00 +11°C° 0 mm 4 m/S 742 mmHg 86%
07:00 +11°C° 0 mm 4 m/S 743 mmHg 85%
08:00 +11°C° 0 mm 4 m/S 743 mmHg 84%
09:00 +12°C° 0 mm 4 m/S 744 mmHg 78%
10:00 +13°C° 0 mm 4 m/S 744 mmHg 71%
11:00 +15°C° 0 mm 4 m/S 745 mmHg 64%
12:00 +15°C° 0 mm 4 m/S 745 mmHg 61%
13:00 +17°C° 0 mm 4 m/S 745 mmHg 57%
14:00 +18°C° 0 mm 4 m/S 745 mmHg 54%
15:00 +17°C° 0.1 mm 3 m/S 745 mmHg 58%
16:00 +17°C° 0.1 mm 3 m/S 745 mmHg 63%
17:00 +16°C° 0.1 mm 3 m/S 745 mmHg 67%
18:00 +14°C° 0 mm 3 m/S 745 mmHg 69%
19:00 +14°C° 0 mm 4 m/S 745 mmHg 70%
20:00 +13°C° 0 mm 4 m/S 745 mmHg 72%
21:00 +13°C° 0.7 mm 4 m/S 744 mmHg 78%
22:00 +12°C° 0.7 mm 4 m/S 744 mmHg 84%
23:00 +12°C° 0.7 mm 5 m/S 744 mmHg 90%
Mehr zeigen